Regional Weather Roundup
Issued by NWS Little Rock, AR

Home | Current Version | Previous Version | Graphics & Text | Print | Product List | Glossary On
Versions: 1 2 3 4 5 6 7 8 9 10 11 12 13 14 15 16 17 18 19 20 21 22 23 24 25 26 27
000
ASUS44 KLZK 270005
RWRLZK

WEATHER ROUNDUP FOR ARKANSAS
NATIONAL WEATHER SERVICE LITTLE ROCK AR
700 PM CDT THU MAY 26 2016

NOTE: "FAIR" INDICATES FEW OR NO CLOUDS BELOW 12,000 FEET WITH NO
SIGNIFICANT WEATHER AND/OR OBSTRUCTIONS TO VISIBILITY.

ARZ001-003-010-029-270100-
NORTHWEST ARKANSAS

CITY           SKY/WX    TMP DP  RH WIND       PRES   REMARKS
FAYETTEVILLE   PTSUNNY   64  64 100 NE3       29.89F
6HR MIN TEMP:  61; 6HR MAX TEMP:  83; 6HR PCP:  0.72;

FORT SMITH     MOSUNNY   77  67  71 E15       29.83R
6HR MIN TEMP:  77; 6HR MAX TEMP:  84;

HARRISON       CLOUDY    66  63  90 SW7       29.90F
6HR MIN TEMP:  66; 6HR MAX TEMP:  85; 6HR PCP:  0.11;

BENTONVILLE    CLOUDY    68  57  68 S6        29.89F
6HR MIN TEMP:  66; 6HR MAX TEMP:  84; 6HR PCP:  0.05;

ROGERS         LGT RAIN  65  60  84 S9        29.89F
6HR MIN TEMP:  65; 6HR MAX TEMP:  85; 6HR PCP:  0.17;

SILOAM SPGS    PTSUNNY   66  55  68 E7        29.88F
6HR MIN TEMP:  64; 6HR MAX TEMP:  82; 6HR PCP:  0.72;

HIGHFILL       LGT RAIN  70  63  78 S12G22    29.88F
6HR MIN TEMP:  65; 6HR MAX TEMP:  84; 6HR PCP:  0.34;

SPRINGDALE     CLOUDY    66  63  88 SE3       29.91F
$$

ARZ004-005-016-270100-
NORTH CENTRAL ARKANSAS

CITY           SKY/WX    TMP DP  RH WIND       PRES   REMARKS
BATESVILLE     CLOUDY    68  64  88 E9        29.96R THUNDER
6HR MIN TEMP:  68; 6HR MAX TEMP:  86; 6HR PCP:  1.39;

FLIPPIN        CLOUDY   N/A N/A N/A S7        29.85F
MTN HOME       CLOUDY    74  67  78 SW6       29.88S
6HR MIN TEMP:  74; 6HR MAX TEMP:  85; 6HR PCP:  0.03;

$$

ARZ040-041-270100-
WEST CENTRAL ARKANSAS

CITY           SKY/WX    TMP DP  RH WIND       PRES   REMARKS
MENA           NOT AVBL
MOUNT IDA      CLOUDY    74  63  68 MISG      29.86R
6HR MIN TEMP:  70; 6HR MAX TEMP:  82; 6HR PCP:  0.13;

$$

ARZ009-017-025-026-028-270100-
NORTHEAST ARKANSAS

CITY           SKY/WX    TMP DP  RH WIND       PRES   REMARKS
JONESBORO      TSTM      71  67  87 S17G28    29.94R VSB 1
6HR MIN TEMP:  74; 6HR MAX TEMP:  86; 6HR PCP:  0.07;

NEWPORT        LGT RAIN  71  69  93 SW13      29.92F
6HR MIN TEMP:  71; 6HR MAX TEMP:  87; 6HR PCP:  0.03;

WALNUT RIDGE   CLOUDY    75  66  73 SW15      29.91R
6HR MIN TEMP:  75; 6HR MAX TEMP:  84; 6HR PCP:  0.04;

BLYTHEVILLE    TSTM      67  65  93 E14G28    29.98  FOG
6HR MIN TEMP:  68; 6HR MAX TEMP:  88; 6HR PCP:  0.87;

$$

ARZ022-023-033-042-044-270100-
CENTRAL ARKANSAS

CITY           SKY/WX    TMP DP  RH WIND       PRES   REMARKS
LITTLE ROCK    CLOUDY    73  67  81 S7        29.90R
6HR MIN TEMP:  73; 6HR MAX TEMP:  86; 6HR PCP:  0.04;

N LITTLE ROCK    N/A     73  69  87 SW3       29.87R
6HR MIN TEMP:  73; 6HR MAX TEMP:  85;

JACKSONVILLE   CLOUDY    72  70  94 E7        29.90R
6HR MIN TEMP:  73; 6HR MAX TEMP:  86; 6HR PCP:  0.05;

SEARCY         CLOUDY    73  72  94 CALM      29.93R
6HR MIN TEMP:  70; 6HR MAX TEMP:  86; 6HR PCP: 20.05;

HOT SPRINGS    CLOUDY    72  66  81 S5        29.90R
6HR MIN TEMP:  71; 6HR MAX TEMP:  83; 6HR PCP:  0.07;

RUSSELLVILLE   PTSUNNY   77  67  71 CALM      29.88F
6HR MIN TEMP:  77; 6HR MAX TEMP:  83; 6HR PCP: TRACE;

$$

ARZ036-270100-
EAST ARKANSAS

CITY           SKY/WX    TMP DP  RH WIND       PRES   REMARKS
WEST MEMPHIS   CLOUDY    69  66  90 E6        29.92F THUNDER
6HR MIN TEMP:  68; 6HR MAX TEMP:  88; 6HR PCP:  1.22;

$$

ARZ050-053-066-070-073-270100-
SOUTHWEST ARKANSAS

CITY           SKY/WX    TMP DP  RH WIND       PRES   REMARKS
ARKADELPHIA    FAIR      73  70  91 CALM      29.89F
6HR MIN TEMP:  72; 6HR MAX TEMP:  84; 6HR PCP:  0.03;

CAMDEN         CLOUDY    72  68  88 S5        29.89F
TEXARKANA      CLOUDY    74  72  93 S7        29.85F FOG
6HR MIN TEMP:  70; 6HR MAX TEMP:  80; 6HR PCP:  0.77;

EL DORADO      LGT RAIN  79  75  87 SE6       29.90F
6HR MIN TEMP:  79; 6HR MAX TEMP:  86; 6HR PCP: TRACE;

DE QUEEN       CLOUDY    73  70  90 SE5       29.81F
6HR MIN TEMP:  70; 6HR MAX TEMP:  78; 6HR PCP:  0.04;

$$

ARZ056-057-069-270100-
SOUTHEAST ARKANSAS

CITY           SKY/WX    TMP DP  RH WIND       PRES   REMARKS
PINE BLUFF     CLOUDY    71  69  93 S5        29.89F
6HR MIN TEMP:  70; 6HR MAX TEMP:  86; 6HR PCP:  0.14;

STUTTGART      CLOUDY    73  64  73 SW7       29.93R
6HR MIN TEMP:  72; 6HR MAX TEMP:  90; 6HR PCP:  0.15;

MONTICELLO     PTSUNNY   80  69  69 CALM      29.90F
6HR MIN TEMP:  79; 6HR MAX TEMP:  90;


$$






USA.gov is the U.S. government's official web portal to all federal, state and local government web resources and services.